• In Hungary
  • List of Countries
  • For 7 days
  • Water Temperature
  • Satellite Maps
  • Weather Map
  • News
  • Weather Widgets
  • user-avatar
    Login

    Hourly Weather Salta

    Today, 22 July, Sunday

    Time Temperature Precipitation Wind Pressure Humidity
    00:00 +10°C° 0 mm 2 mps 648 mmHg 55%
    01:00 +10°C° 0 mm 3 mps 647 mmHg 54%
    02:00 +10°C° 0 mm 3 mps 647 mmHg 54%
    03:00 +10°C° 0 mm 2 mps 646 mmHg 53%
    04:00 +9°C° 0 mm 2 mps 646 mmHg 52%
    05:00 +9°C° 0 mm 2 mps 646 mmHg 51%
    06:00 +10°C° 0 mm 2 mps 647 mmHg 46%
    07:00 +13°C° 0 mm 2 mps 647 mmHg 42%
    08:00 +15°C° 0 mm 2 mps 649 mmHg 35%
    09:00 +18°C° 0 mm 2 mps 650 mmHg 28%
    10:00 +23°C° 0 mm 2 mps 651 mmHg 22%
    11:00 +27°C° 0 mm 2 mps 652 mmHg 15%
    12:00 +27°C° 0 mm 2 mps 652 mmHg 16%
    13:00 +27°C° 0 mm 3 mps 652 mmHg 16%
    14:00 +28°C° 0 mm 4 mps 652 mmHg 16%
    15:00 +26°C° 0 mm 3 mps 652 mmHg 20%
    16:00 +24°C° 0 mm 3 mps 651 mmHg 25%
    17:00 +21°C° 0 mm 3 mps 651 mmHg 29%
    18:00 +18°C° 0 mm 3 mps 651 mmHg 35%
    19:00 +16°C° 0 mm 2 mps 652 mmHg 41%
    20:00 +13°C° 0 mm 1 mps 652 mmHg 48%
    21:00 +12°C° 0 mm 1 mps 652 mmHg 50%
    22:00 +11°C° 0 mm 1 mps 653 mmHg 51%
    23:00 +11°C° 0 mm 1 mps 653 mmHg 53%

    Tomorrow, 23 July, Monday

    Time Temperature Precipitation Wind Pressure Humidity
    00:00 +10°C° 0 mm 1 mps 653 mmHg 54%
    01:00 +9°C° 0 mm 1 mps 653 mmHg 55%
    02:00 +9°C° 0 mm 1 mps 653 mmHg 56%
    03:00 +8°C° 0 mm 1 mps 653 mmHg 57%
    04:00 +8°C° 0 mm 1 mps 653 mmHg 57%
    05:00 +7°C° 0 mm 1 mps 654 mmHg 58%
    06:00 +8°C° 0 mm 1 mps 654 mmHg 56%
    07:00 +8°C° 0 mm 1 mps 655 mmHg 54%
    08:00 +8°C° 0 mm 1 mps 656 mmHg 52%
    09:00 +9°C° 0 mm 2 mps 656 mmHg 46%
    10:00 +12°C° 0 mm 2 mps 656 mmHg 39%
    11:00 +13°C° 0 mm 3 mps 657 mmHg 33%
    12:00 +13°C° 0 mm 3 mps 656 mmHg 31%
    13:00 +14°C° 0 mm 3 mps 656 mmHg 30%
    14:00 +16°C° 0 mm 3 mps 655 mmHg 28%
    15:00 +14°C° 0 mm 3 mps 654 mmHg 29%
    16:00 +13°C° 0 mm 3 mps 654 mmHg 31%
    17:00 +12°C° 0 mm 3 mps 653 mmHg 32%
    18:00 +12°C° 0 mm 2 mps 654 mmHg 35%
    19:00 +9°C° 0 mm 2 mps 654 mmHg 38%
    20:00 +8°C° 0 mm 1 mps 654 mmHg 41%
    21:00 +8°C° 0 mm 1 mps 654 mmHg 42%
    22:00 +7°C° 0 mm 1 mps 654 mmHg 42%
    23:00 +7°C° 0 mm 1 mps 654 mmHg 43%

    Day after tomorrow, 24 July, Tuesday

    Time Temperature Precipitation Wind Pressure Humidity
    00:00 +7°C° 0 mm 1 mps 654 mmHg 44%
    01:00 +6°C° 0 mm 1 mps 654 mmHg 44%
    02:00 +6°C° 0 mm 1 mps 654 mmHg 45%
    03:00 +6°C° 0 mm 1 mps 653 mmHg 46%
    04:00 +6°C° 0 mm 1 mps 653 mmHg 47%
    05:00 +5°C° 0 mm 1 mps 652 mmHg 47%
    06:00 +6°C° 0 mm 1 mps 653 mmHg 46%
    07:00 +6°C° 0 mm 2 mps 653 mmHg 45%
    08:00 +6°C° 0 mm 2 mps 654 mmHg 44%
    09:00 +9°C° 0 mm 2 mps 654 mmHg 38%
    10:00 +13°C° 0 mm 2 mps 655 mmHg 32%
    11:00 +15°C° 0 mm 2 mps 655 mmHg 26%
    12:00 +16°C° 0 mm 2 mps 655 mmHg 25%
    13:00 +17°C° 0 mm 3 mps 654 mmHg 24%
    14:00 +18°C° 0 mm 3 mps 653 mmHg 23%
    15:00 +17°C° 0 mm 3 mps 653 mmHg 25%
    16:00 +16°C° 0 mm 3 mps 652 mmHg 27%
    17:00 +14°C° 0 mm 3 mps 652 mmHg 29%
    18:00 +13°C° 0 mm 2 mps 652 mmHg 34%
    19:00 +10°C° 0 mm 2 mps 652 mmHg 40%
    20:00 +9°C° 0 mm 1 mps 653 mmHg 45%
    21:00 +8°C° 0 mm 2 mps 653 mmHg 46%
    22:00 +8°C° 0 mm 2 mps 653 mmHg 47%
    23:00 +7°C° 0 mm 2 mps 653 mmHg 48%

    25 July, Wednesday

    Time Temperature Precipitation Wind Pressure Humidity
    00:00 +7°C° 0 mm 2 mps 653 mmHg 49%
    01:00 +7°C° 0 mm 2 mps 653 mmHg 50%
    02:00 +6°C° 0 mm 2 mps 653 mmHg 51%
    03:00 +6°C° 0 mm 2 mps 652 mmHg 52%
    04:00 +6°C° 0 mm 2 mps 652 mmHg 53%
    05:00 +6°C° 0 mm 2 mps 652 mmHg 55%
    06:00 +6°C° 0 mm 2 mps 653 mmHg 54%
    07:00 +7°C° 0 mm 2 mps 654 mmHg 53%
    08:00 +7°C° 0 mm 2 mps 654 mmHg 52%
    09:00 +10°C° 0 mm 2 mps 655 mmHg 44%
    10:00 +14°C° 0 mm 2 mps 656 mmHg 36%
    11:00 +17°C° 0 mm 2 mps 656 mmHg 29%
    12:00 +18°C° 0 mm 2 mps 656 mmHg 27%
    13:00 +19°C° 0 mm 2 mps 655 mmHg 26%
    14:00 +19°C° 0 mm 3 mps 654 mmHg 25%
    15:00 +19°C° 0 mm 2 mps 654 mmHg 27%
    16:00 +18°C° 0 mm 2 mps 653 mmHg 30%
    17:00 +17°C° 0 mm 2 mps 653 mmHg 32%
    18:00 +15°C° 0 mm 2 mps 653 mmHg 38%
    19:00 +13°C° 0 mm 1 mps 653 mmHg 45%
    20:00 +11°C° 0 mm 1 mps 653 mmHg 51%
    21:00 +10°C° 0 mm 1 mps 653 mmHg 52%
    22:00 +10°C° 0 mm 1 mps 653 mmHg 53%
    23:00 +9°C° 0 mm 1 mps 653 mmHg 54%

    26 July, Thursday

    Time Temperature Precipitation Wind Pressure Humidity
    00:00 +9°C° 0 mm 1 mps 653 mmHg 54%
    01:00 +9°C° 0 mm 1 mps 653 mmHg 54%
    02:00 +9°C° 0 mm 1 mps 653 mmHg 54%
    03:00 +9°C° 0 mm 1 mps 653 mmHg 54%
    04:00 +8°C° 0 mm 1 mps 652 mmHg 54%
    05:00 +8°C° 0 mm 1 mps 652 mmHg 53%
    06:00 +9°C° 0 mm 1 mps 653 mmHg 52%
    07:00 +10°C° 0 mm 1 mps 653 mmHg 50%
    08:00 +10°C° 0 mm 1 mps 654 mmHg 48%
    09:00 +13°C° 0 mm 1 mps 654 mmHg 43%
    10:00 +16°C° 0 mm 2 mps 655 mmHg 37%
    11:00 +19°C° 0 mm 2 mps 655 mmHg 31%
    12:00 +19°C° 0 mm 2 mps 655 mmHg 29%
    13:00 +20°C° 0 mm 3 mps 654 mmHg 28%
    14:00 +21°C° 0 mm 3 mps 653 mmHg 26%
    15:00 +20°C° 0 mm 3 mps 653 mmHg 29%
    16:00 +19°C° 0 mm 3 mps 652 mmHg 31%
    17:00 +18°C° 0 mm 3 mps 652 mmHg 33%
    18:00 +16°C° 0 mm 2 mps 651 mmHg 41%
    19:00 +14°C° 0 mm 2 mps 651 mmHg 48%
    20:00 +12°C° 0 mm 1 mps 651 mmHg 56%
    21:00 +12°C° 0 mm 1 mps 651 mmHg 58%
    22:00 +11°C° 0 mm 1 mps 651 mmHg 60%
    23:00 +11°C° 0 mm 1 mps 651 mmHg 62%

    27 July, Friday

    Time Temperature Precipitation Wind Pressure Humidity
    00:00 +10°C° 0 mm 2 mps 651 mmHg 63%
    01:00 +10°C° 0 mm 2 mps 650 mmHg 64%
    02:00 +9°C° 0 mm 2 mps 650 mmHg 65%
    03:00 +9°C° 0 mm 2 mps 650 mmHg 65%
    04:00 +9°C° 0 mm 2 mps 649 mmHg 65%
    05:00 +9°C° 0 mm 2 mps 649 mmHg 64%
    06:00 +9°C° 0 mm 2 mps 650 mmHg 63%
    07:00 +10°C° 0 mm 2 mps 650 mmHg 62%
    08:00 +10°C° 0 mm 2 mps 650 mmHg 60%
    09:00 +12°C° 0 mm 3 mps 650 mmHg 54%
    10:00 +14°C° 0 mm 3 mps 650 mmHg 49%
    11:00 +17°C° 0 mm 4 mps 651 mmHg 43%
    12:00 +18°C° 0 mm 4 mps 650 mmHg 41%
    13:00 +20°C° 0 mm 5 mps 649 mmHg 38%
    14:00 +21°C° 0 mm 5 mps 648 mmHg 36%
    15:00 +20°C° 0 mm 5 mps 648 mmHg 39%
    16:00 +17°C° 0 mm 5 mps 648 mmHg 43%
    17:00 +16°C° 0 mm 5 mps 648 mmHg 47%
    18:00 +15°C° 0 mm 4 mps 648 mmHg 54%
    19:00 +13°C° 0 mm 4 mps 648 mmHg 60%
    20:00 +11°C° 0 mm 3 mps 648 mmHg 67%
    21:00 +11°C° 0 mm 3 mps 648 mmHg 67%
    22:00 +11°C° 0 mm 3 mps 648 mmHg 66%
    23:00 +11°C° 0 mm 3 mps 648 mmHg 66%
    Show more